Flag for Tunisia Weather past 2 weeks in Kairouan, Tunisia

Now
73 °F

Passing clouds.


Feels Like: 77 °F
Forecast: 66 / 87 °F
Wind: No wind

Location: Kairouan Airport

Current Time: May 29, 2015 at 11:57:40 PM

Latest Report: May 29, 2015 at 11:00 PM


Visibility: N/A

Pressure: 30.01 "Hg

Humidity: 41%

Dew point: 48 °F

Location of KairouanLocation

Historic Weather in Kairouan — Graph

°F

Kairouan temperature yesterday

Maximum temperature yesterday: 86 °F (at 4:00 PM)
Minimum temperature yesterday: 66 °F (at 12:00 AM)
Average temperature yesterday: 76 °F

Past Weeks' High & Low Weather Summary

 TemperatureHumidityPressure
High102 °F (May 15, 3:00 PM)83% (May 25, 11:00 PM)30.12 "Hg (May 25, 11:00 PM)
Low55 °F (May 23, 4:00 AM)8% (May 15, 3:00 PM)29.71 "Hg (May 19, 5:00 PM)
Average74 °F44%29.96 "Hg
* Reported May 14 10:00 PM — May 29 10:00 PM, Kairouan, Weather by CustomWeather, © 2015

Note: Actual official high and low records may vary slightly from our data, if they occured in-between our weather recording intervals... More about our weather records

Advertising

Kairouan weather history for previous 24 hours

 ConditionsComfort  
Time TempWeatherWind HumidityBarometerVisibility
10:00 PM
Fri, May 29
75 °FPassing clouds.5 mph39%30.01 "HgN/A
9:00 PM77 °FPassing clouds.5 mph30%29.98 "HgN/A
6:00 PM88 °FSunny.2 mph25%29.92 "Hg10 mi
5:00 PM90 °FSunny.2 mph22%29.92 "Hg10 mi
4:00 PM90 °FSunny.3 mph24%29.95 "Hg10 mi
3:00 PM90 °FSunny.2 mph24%29.98 "Hg10 mi
2:00 PM86 °FSunny.3 mph25%30.01 "Hg10 mi
1:00 PM86 °FSunny.5 mph24%30.04 "Hg10 mi
12:00 PM82 °FSunny.5 mph26%30.04 "Hg10 mi
11:00 AM81 °FSunny.2 mph30%30.07 "Hg10 mi
7:00 AM66 °FSunny.No wind64%30.09 "Hg10 mi
6:00 AM61 °FSunny.No wind72%30.07 "Hg10 mi
5:00 AM61 °FClear.No wind72%30.07 "Hg10 mi
4:00 AM63 °FClear.No wind73%30.07 "Hg10 mi
3:00 AM63 °FMild.No wind73%30.09 "HgN/A
2:00 AM64 °FClear.No wind73%30.09 "Hg10 mi
1:00 AM64 °FClear.No wind73%30.12 "Hg10 mi
12:00 AM66 °FClear.No wind68%30.12 "Hg10 mi
11:00 PM
Thu, May 28
68 °FClear.No wind64%30.12 "Hg10 mi
Weather by CustomWeather, © 2015

See weather overviewHow to use our weather pages